Location: Pardubice
(50.0330°N, 15.7830°E)
Time: 11:00:11
(UTC+02:00)

Courier 1B - Visible Passes

Search period start: 07 October 2024 00:00
Search period end: 17 October 2024 00:00
Orbit: 962 x 1208 km, 28.3° (Epoch: 06 October)

Date Brightness Start Highest point End Pass type
(mag) Time Alt. Az. Time Alt. Az. Time Alt. Az.
10 Oct 9.9 06:08:45 10° S 06:09:47 10° S 06:10:49 10° SSE visible
12 Oct 9.8 06:13:20 10° SSW 06:15:20 11° S 06:17:19 10° SSE visible
13 Oct 9.8 05:19:34 10° SSW 05:21:50 12° S 05:24:04 10° SSE visible
14 Oct 9.8 04:28:10 11° S 04:28:19 11° S 04:30:26 10° SSE visible
14 Oct 9.8 06:19:20 10° SSW 06:20:52 11° S 06:22:23 10° S visible
15 Oct 9.7 05:24:53 10° SSW 05:27:21 12° S 05:29:47 10° SSE visible
16 Oct 9.7 04:34:08 12° S 04:34:08 12° S 04:36:39 10° SSE visible
